{"data":{"norad_id":69340,"intl_designator":"2026-122M","name":"STARLINK-37780","alt_names":[],"object_type":"PAYLOAD","status":"ACTIVE","operator":null,"country":"US","launch_date":"2026-06-03","launch_site_code":"AFWTR","launch_vehicle":null,"mission":null,"orbit_class":"UNKNOWN","rcs_meters":null,"size_class":null,"mass_kg":null,"dimensions":null,"purposes":["comms"],"wikipedia_slug":null,"has_3d_model":false,"image_url":null,"decayed_at":null,"tle_current":{"epoch":"2026-09-19T00:44:15.316512Z","epoch_age_seconds":155968,"freshness":"FRESH","line1":"1 69340U 26122M   26262.03073283  .00017611  00000+0  54644-3 0  9990","line2":"2 69340  97.2838 290.6622 0001519 101.3998 258.7416 15.33451461 16570","mean_motion":15.33451461,"eccentricity":0.0001519,"inclination_deg":97.2838,"raan_deg":290.6622,"arg_perigee_deg":101.3998,"mean_anomaly_deg":258.7416,"bstar":0.00054644,"rev_number":1657,"period_min":93.90580899515,"perigee_km":464.48439905685,"apogee_km":466.56350325381,"semimajor_km":6843.6609511553,"source":"CELESTRAK","updated_at":"2026-09-20T09:00:44.161145Z"}}}